Weather in Chobykovo

Russia / Mari El Republic     57°03′18″N   48°48′04″E
temp.,
°C
wind,
m/s
gust,
m/s
humid.,
%
clouds,
%
prec.,
mm/h
press.,
hPa
HPBL,
m
26 february, fri
fri2600:00−20se5109584 0.0 1018293
03:00−20se499591 0.1 1019270
06:00−22se499883 0.0 1018184
09:00−20se599678 0.0 1017294
12:00−16se61092100 0.0 1015453
15:00−15sse71391100 0.0 1012548
18:00−14se91689100 0.1 1008611
21:00−13se91694100 2.9 1003615
27 february, sat
sat2700:00−13se81394100 4.4 1000624
03:00−13ese71293100 5.3 999465
06:00−14ese61193100 0.3 998394
09:00−13e71094100 0.8 999425
12:00−11ene6993100 0.6 999552
15:00−11ne6993100 1.1 1002585
18:00−13ne61094100 0.4 1003438
21:00−13ne5109498 0.6 1005409
28 february, sun
sun2800:00−15nne5995100 0.1 1007308
03:00−18nne5997100 0.2 1009208
06:00−21nne499886 0.0 1010167
09:00−20nne479554 0.0 1011249
12:00−18n579259 0.0 1012352
15:00−16n589176 0.0 1014487
18:00−20n449878 0.0 101565
21:00−21nne349866 0.0 101841
1 march, mon
mon100:00−22n339941 0.0 101925
03:00−22n339921 0.0 102121
06:00−23n23990 0.0 102320
09:00−19nnw23950 0.0 102487
12:00−15wnw228721 0.0 1024238
15:00−13wsw359019 0.0 1024314
18:00−16wsw44961 0.0 102361
21:00−15sw6119722 0.0 1022203
2 march, tue
tue200:00−14sw71396100 0.0 1019273
03:00−13sw81395100 0.1 1015334
06:00−10sw81494100 1.1 1011452
09:00−7sw71294100 1.9 1008440
12:00−3wsw6995100 0.5 1006497
15:000w589999 1.1 1004581
18:00−2wnw4997100 0.3 1004244
21:00−3nw499499 0.4 1005232